Location: Waco, TX
(31.5480°N, 97.1670°W)
Time: 00:50:31
(UTC-05:00)

ISS - Pass Details

Date: 16 October 2018
Orbit: 403 x 408 km, 51.6° (Epoch: 21 October)

Event Time Altitude Azimuth Distance (km) Brightness Sun altitude
Rises 19:43:51 0° 291° (WNW) 2,327 1.3 -11.1°
Reaches altitude 10° 19:46:59 10° 258° (WSW) 1,462 0.5 -11.7°
Maximum altitude 19:48:18 12° 235° (SW) 1,347 -0.3 -12.0°
Drops below altitude 10° 19:49:37 10° 211° (SSW) 1,458 -0.5 -12.3°
Sets 19:52:44 0° 178° (S) 2,311 0.0 -13.0°
